Retour au catalogue

CZ-4 DEB

ActifSSO
NORAD 20849·DEBRIS·🇨🇳 China

Lancé Sep 3, 1990 depuis Taiyuan Satellite Launch Center

Loading…

Prochains Passages (prochaines 24 heures)

TLE

FraisSource: Space-Track

Époque: Sep 14, 2026, 09:06 UTC

1 20849U 90081M   26257.37974176  .00000522  00000-0  26836-3 0  9994
2 20849  98.6867 235.7628 0037920 200.2083 159.7594 14.19154859848623

Suivez CZ-4 DEB en temps réel avec AllMySat

Download on the App Store